User: anonymous
Location: Unspecified
(0.0000°N, 0.0000°E)
Time: 11:06:57
(UTC+00:00)
Language:

SICRAL 1B - Orbit

View from above orbital plane
View from above orbital plane
View from above satellite
View from above satellite

Ground track
Ground track

The orbit data is extracted from the following two-line orbital elements,

1 34810U 09020A   14182.41029230 0.00000000  00000-0  00000-0 0    07
2 34810   0.0928  79.0187 0003453  37.5920 322.4561  1.00270000    03
Epoch (UTC): 01 July 2014 09:50:49
Eccentricity: 0.0003453
inclination: 0.0928°
perigee height: 35772 km
apogee height: 35801 km
right ascension of ascending node: 79.0187°
argument of perigee: 37.5920°
revolutions per day: 1.00270000
mean anomaly at epoch: 322.4561°
orbit number at epoch: 0

The dashed part of the orbit path shows where the satellite is in the earth's shadow,  

DLR